Powrót do katalogu

PIAST-S2

AktywnyNaukaSSO
NORAD 66757·PAYLOAD·🇵🇱 Poland

Wystrzelony Nov 28, 2025 z Vandenberg Space Force Base

Loading…

Następne Przeloty (najbliższe 24 godziny)

TLE

ŚwieżeSource: Space-Track

Epoka: Sep 14, 2026, 22:08 UTC

1 66757U 25276CV  26257.92262655  .00004820  00000-0  21844-3 0  9998
2 66757  97.4137 330.3381 0002118  44.9350 315.2057 15.21315137 44079

Śledź PIAST-S2 w czasie rzeczywistym z AllMySat

Download on the App Store